Home   Weather   Sangerhausen   Past weeks

Flag for Germany Past Weather in Sangerhausen, Saxony-Anhalt, Germany — Yesterday and Last 2 Weeks

Now
57 °F

Clear.


Feels Like: 56 °F
Forecast: 54 / 67 °F
Wind: 7 mph from South

Location: Erfurt-Bindersleben

Current Time: Jul 24, 2017 at 2:57:29 am

Latest Report: Jul 24, 2017 at 2:20 am


Visibility: 10 mi

Pressure: 29.92 "Hg

Humidity: 72%

Dew Point: 48 °F

Location of SangerhausenLocation

Past Weather in Sangerhausen — Graph

°F

Sangerhausen Temperature Yesterday

Maximum temperature yesterday: 73 °F (at 3:50 pm)
Minimum temperature yesterday: 57 °F (at 10:20 pm)
Average temperature yesterday: 66 °F

High & Low Weather Summary for the Past Weeks

 TemperatureHumidityPressure
High90 °F (Jul 19, 3:50 pm)100% (Jul 10, 4:50 am)30.24 "Hg (Jul 10, 4:50 am)
Low45 °F (Jul 13, 4:50 am)29% (Jul 19, 4:50 pm)29.71 "Hg (Jul 12, 5:50 pm)
Average65 °F73%29.99 "Hg
* Reported Jul 9 1:20 am — Jul 24 1:50 am, Sangerhausen. Weather by CustomWeather, © 2017

Note: Actual official high and low records may vary slightly from our data, if they occured in-between our weather recording intervals... More about our weather records

Advertising

Sangerhausen Weather History for the Previous 24 Hours

Scroll right to see more
 ConditionsComfort  
Time TempWeatherWind HumidityBarometerVisibility
1:50 am
Mon, Jul 24
55 °FClear.7 mph77%29.95 "Hg10 mi
1:20 am55 °FClear.7 mph77%29.95 "Hg10 mi
12:50 am55 °FClear.7 mph77%29.95 "Hg10 mi
12:20 am57 °FClear.8 mph72%29.98 "Hg10 mi
11:50 pm
Sun, Jul 23
57 °FClear.7 mph72%29.98 "Hg10 mi
11:20 pm57 °FClear.7 mph72%29.98 "Hg10 mi
10:50 pm57 °FClear.6 mph72%29.98 "Hg10 mi
10:20 pm57 °FClear.7 mph72%29.98 "Hg10 mi
9:50 pm59 °FClear.8 mph63%29.98 "Hg10 mi
9:20 pm61 °FClear.7 mph59%29.98 "Hg10 mi
8:50 pm64 °FSunny.10 mph52%29.98 "Hg10 mi
8:20 pm66 °FSunny.14 mph49%29.95 "Hg10 mi
7:50 pm68 °FSunny.15 mph46%29.95 "Hg10 mi
7:30 pm68 °FSunny.15 mph46%29.95 "Hg10 mi
7:20 pm68 °FSunny.16 mph46%29.95 "Hg10 mi
6:50 pm70 °FSunny.18 mph43%29.95 "Hg10 mi
6:20 pm70 °FPassing clouds.18 mph43%29.95 "HgN/A
5:20 pm72 °FPassing clouds.17 mph41%29.95 "HgN/A
4:50 pm72 °FSunny.17 mph44%29.95 "Hg10 mi
4:20 pm73 °FPassing clouds.20 mph36%29.95 "HgN/A
3:50 pm73 °FPassing clouds.16 mph38%29.95 "HgN/A
3:20 pm72 °FPassing clouds.17 mph50%29.95 "HgN/A
2:50 pm72 °FPassing clouds.17 mph44%29.95 "HgN/A
2:20 pm70 °FScattered clouds.14 mph50%29.98 "HgN/A
1:50 pm68 °FScattered clouds.13 mph53%29.98 "HgN/A
1:20 pm70 °FScattered clouds.16 mph50%29.98 "HgN/A
12:50 pm70 °FScattered clouds.15 mph50%29.98 "HgN/A
12:20 pm68 °FPartly sunny.16 mph53%29.98 "HgN/A
11:50 am68 °FPartly sunny.22 mph56%29.98 "HgN/A
11:20 am70 °FBroken clouds.21 mph53%29.95 "HgN/A
10:50 am68 °FScattered clouds.18 mph60%29.95 "HgN/A
10:20 am68 °FScattered clouds.20 mph56%29.95 "HgN/A
9:50 am68 °FScattered clouds.16 mph64%29.95 "HgN/A
9:20 am64 °FScattered clouds.15 mph73%29.95 "HgN/A
8:50 am64 °FSprinkles. Broken clouds.14 mph78%29.95 "HgN/A
7:50 am64 °FPartly sunny.13 mph78%29.92 "HgN/A
7:20 am64 °FSunny.9 mph83%29.92 "Hg10 mi
6:50 am64 °FSunny.10 mph83%29.92 "Hg10 mi
6:20 am64 °FSunny.9 mph83%29.92 "Hg10 mi
5:50 am63 °FBroken clouds.6 mph88%29.92 "HgN/A
5:20 am63 °FPartly cloudy.8 mph88%29.89 "HgN/A
4:50 am63 °FScattered showers. Passing clouds.8 mph88%29.89 "HgN/A
4:20 am64 °FThundershowers. Passing clouds.12 mph83%29.89 "HgN/A
3:20 am64 °FClear.12 mph83%29.89 "Hg10 mi
2:50 am64 °FClear.9 mph78%29.89 "Hg10 mi
2:20 am66 °FClear.9 mph73%29.89 "Hg10 mi
Weather by CustomWeather, © 2017

See weather overviewHow to use our weather pages